�������l�o���
Date,Time,MP-1(��Sv/h),MP-2(��Sv/h),MP-3(��Sv/h),MP-4(��Sv/h),MP-5(��Sv/h),MP-6(��Sv/h),MP-7(��Sv/h),MP-8(��Sv/h),����,����(m/s),���J
2018/01/18,00:00,0.848,1.386,0.880,1.654,1.103,0.483,0.851,0.820,�k�k��,11.6,�L
2018/01/18,00:10,0.850,1.389,0.884,1.656,1.108,0.482,0.852,0.821,�k�k��,11.6,�L
2018/01/18,00:20,0.851,1.391,0.886,1.659,1.109,0.484,0.851,0.823,�k�k��,11.1,�L
2018/01/18,00:30,0.850,1.394,0.887,1.662,1.107,0.484,0.851,0.824,�k��,13.3,�L
2018/01/18,00:40,0.853,1.397,0.888,1.666,1.111,0.483,0.851,0.822,�k�k��,13.0,�L
2018/01/18,00:50,0.852,1.396,0.887,1.666,1.114,0.482,0.852,0.822,�k�k��,12.8,�L
2018/01/18,01:00,0.853,1.397,0.885,1.668,1.115,0.481,0.851,0.824,�k��,12.2,�L
2018/01/18,01:10,0.853,1.402,0.889,1.669,1.116,0.483,0.853,0.823,�k��,11.6,�L
2018/01/18,01:20,0.853,1.400,0.887,1.668,1.116,0.483,0.856,0.823,�k��,12.7,�L
2018/01/18,01:30,0.855,1.399,0.887,1.671,1.117,0.480,0.854,0.823,�k��,13.1,�L
2018/01/18,01:40,0.851,1.402,0.887,1.670,1.114,0.480,0.854,0.823,�k��,12.4,�L
2018/01/18,01:50,0.851,1.402,0.888,1.668,1.116,0.481,0.853,0.822,�k��,11.3,�L
2018/01/18,02:00,0.851,1.401,0.888,1.669,1.115,0.482,0.852,0.823,�k��,8.5,�L
2018/01/18,02:10,0.853,1.400,0.886,1.669,1.114,0.481,0.855,0.823,�k��,9.1,�L
2018/01/18,02:20,0.850,1.403,0.887,1.667,1.115,0.482,0.854,0.823,�k��,9.6,�L
2018/01/18,02:30,0.851,1.401,0.885,1.670,1.117,0.479,0.854,0.825,�k�k��,8.2,�L
2018/01/18,02:40,0.853,1.402,0.888,1.670,1.117,0.479,0.854,0.825,�k�k��,7.6,�L
2018/01/18,02:50,0.853,1.405,0.886,1.668,1.115,0.480,0.855,0.827,�k�k��,9.3,�L
2018/01/18,03:00,0.851,1.404,0.886,1.672,1.116,0.478,0.852,0.823,�k�k��,11.8,�L
2018/01/18,03:10,0.851,1.404,0.887,1.671,1.116,0.479,0.854,0.823,�k�k��,12.7,��
2018/01/18,03:20,0.850,1.407,0.886,1.672,1.118,0.477,0.853,0.822,�k�k��,10.3,��
2018/01/18,03:30,0.850,1.405,0.886,1.671,1.117,0.477,0.855,0.823,�k�k��,10.2,��
2018/01/18,03:40,0.851,1.405,0.887,1.671,1.116,0.477,0.853,0.824,�k��,10.5,�L
2018/01/18,03:50,0.850,1.404,0.888,1.672,1.117,0.478,0.854,0.825,�k��,9.2,��
2018/01/18,04:00,0.852,1.406,0.887,1.673,1.118,0.478,0.855,0.824,�k�k��,9.0,��
2018/01/18,04:10,0.852,1.404,0.885,1.671,1.116,0.478,0.855,0.825,�k��,9.3,��
2018/01/18,04:20,0.852,1.404,0.889,1.671,1.114,0.478,0.856,0.824,�k��,8.5,��
2018/01/18,04:30,0.852,1.407,0.888,1.674,1.118,0.479,0.855,0.824,�k��,8.1,��
2018/01/18,04:40,0.852,1.406,0.886,1.675,1.118,0.477,0.855,0.824,�k��,9.5,��
2018/01/18,04:50,0.852,1.407,0.888,1.676,1.121,0.479,0.855,0.825,�k��,10.7,��
2018/01/18,05:00,0.851,1.407,0.887,1.673,1.120,0.477,0.855,0.826,�k��,9.6,��
2018/01/18,05:10,0.852,1.407,0.890,1.675,1.119,0.478,0.855,0.825,�k�k��,11.8,��
2018/01/18,05:20,0.855,1.409,0.887,1.676,1.120,0.477,0.855,0.823,�k��,9.9,��
2018/01/18,05:30,0.853,1.409,0.889,1.676,1.123,0.478,0.856,0.825,�k�k��,10.7,��
2018/01/18,05:40,0.852,1.407,0.890,1.675,1.120,0.479,0.857,0.825,�k��,8.8,��
2018/01/18,05:50,0.853,1.410,0.888,1.678,1.122,0.478,0.856,0.825,�k��,9.4,��
2018/01/18,06:00,0.853,1.409,0.889,1.677,1.123,0.479,0.857,0.823,�k��,8.6,��
2018/01/18,06:10,0.853,1.408,0.890,1.674,1.123,0.477,0.855,0.826,�k��,9.3,��
2018/01/18,06:20,0.853,1.408,0.890,1.677,1.123,0.479,0.856,0.825,�k��,11.6,��
2018/01/18,06:30,0.853,1.411,0.891,1.678,1.122,0.479,0.857,0.827,�k��,9.9,��
2018/01/18,06:40,0.854,1.409,0.889,1.679,1.124,0.479,0.857,0.827,�k��,10.5,��
2018/01/18,06:50,0.856,1.410,0.890,1.678,1.124,0.478,0.858,0.826,�k��,9.4,��
2018/01/18,07:00,0.854,1.408,0.891,1.680,1.124,0.479,0.858,0.825,�k��,8.9,��
2018/01/18,07:10,0.854,1.409,0.890,1.680,1.124,0.479,0.857,0.826,�k��,7.6,��
2018/01/18,07:20,0.856,1.413,0.891,1.680,1.126,0.480,0.858,0.827,�k�k��,8.6,��
2018/01/18,07:30,0.852,1.411,0.891,1.678,1.123,0.479,0.857,0.826,�k�k��,9.5,��
2018/01/18,07:40,0.855,1.414,0.892,1.679,1.123,0.478,0.857,0.825,�k��,8.5,��
2018/01/18,07:50,0.855,1.412,0.890,1.682,1.124,0.480,0.858,0.826,�k��,9.9,��
2018/01/18,08:00,0.854,1.411,0.890,1.681,1.124,0.477,0.859,0.825,�k��,9.7,��
2018/01/18,08:10,0.856,1.415,0.891,1.681,1.126,0.479,0.859,0.825,�k��,10.2,��
2018/01/18,08:20,0.857,1.415,0.893,1.680,1.126,0.479,0.861,0.828,�k�k��,9.9,��
2018/01/18,08:30,0.856,1.415,0.891,1.682,1.127,0.479,0.858,0.825,�k�k��,8.1,��
2018/01/18,08:40,0.854,1.415,0.893,1.684,1.128,0.478,0.858,0.828,�k�k��,7.5,��
2018/01/18,08:50,0.858,1.413,0.893,1.685,1.128,0.480,0.859,0.828,�k�k��,7.5,��
2018/01/18,09:00,0.858,1.418,0.891,1.686,1.128,0.481,0.860,0.827,�k�k��,8.7,��
2018/01/18,09:10,0.857,1.414,0.893,1.686,1.128,0.480,0.860,0.828,�k��,6.0,��
2018/01/18,09:20,0.858,1.413,0.894,1.685,1.131,0.480,0.859,0.826,�k��,6.3,��
2018/01/18,09:30,0.858,1.414,0.895,1.688,1.130,0.480,0.860,0.827,�k��,7.6,��
2018/01/18,09:40,0.861,1.412,0.895,1.686,1.130,0.481,0.858,0.828,�k�k��,7.3,��
2018/01/18,09:50,0.859,1.412,0.895,1.689,1.130,0.481,0.856,0.828,�k,5.8,��
2018/01/18,10:00,0.858,1.414,0.896,1.686,1.131,0.481,0.857,0.825,�k,7.8,��
2018/01/18,10:10,0.858,1.414,0.895,1.689,1.132,0.480,0.856,0.828,�k�k��,9.1,��
2018/01/18,10:20,0.854,1.414,0.894,1.686,1.134,0.480,0.858,0.828,�k�k��,9.4,��
2018/01/18,10:30,0.859,1.409,0.894,1.688,1.134,0.482,0.857,0.827,�k�k��,8.5,��
2018/01/18,10:40,0.858,1.418,0.891,1.686,1.134,0.481,0.856,0.828,�k�k��,7.3,��
2018/01/18,10:50,0.857,1.416,0.895,1.689,1.136,0.482,0.856,0.829,�k�k��,6.8,��
2018/01/18,11:00,0.856,1.418,-,1.689,1.135,0.479,0.856,0.828,�k�k��,5.9,��
2018/01/18,11:10,0.859,1.419,-,1.692,1.135,0.480,0.858,0.826,�k�k��,5.4,��
2018/01/18,11:20,0.860,1.418,-,1.689,1.134,0.480,0.856,0.828,�k�k��,5.3,��
2018/01/18,11:30,0.862,1.421,-,1.690,1.135,0.480,0.857,0.828,�k�k��,5.4,��
2018/01/18,11:40,0.861,1.421,-,1.688,1.134,0.481,0.856,0.829,�k�k��,4.5,��
2018/01/18,11:50,0.861,1.422,-,1.690,1.135,0.481,0.857,0.827,�k�k��,5.3,��
2018/01/18,12:00,0.861,1.424,-,1.690,1.135,0.481,0.860,0.826,�k�k��,5.3,��
2018/01/18,12:10,0.861,1.421,-,1.689,1.136,0.481,0.857,0.829,�k�k��,5.8,��
2018/01/18,12:20,0.863,1.423,-,1.692,1.138,0.481,0.858,0.829,�k�k��,4.3,��
2018/01/18,12:30,0.863,1.425,-,1.692,1.138,0.481,0.859,0.829,�k��,4.5,��
2018/01/18,12:40,0.864,1.424,-,1.692,1.136,0.482,0.857,0.830,�k��,4.0,��
2018/01/18,12:50,0.861,1.424,-,1.692,1.136,0.480,0.858,0.830,�k��,4.3,��
2018/01/18,13:00,0.865,1.424,-,1.692,1.136,0.480,0.858,0.830,�k��,3.9,��
2018/01/18,13:10,0.856,1.425,-,1.689,1.136,0.482,0.859,0.828,�k��,3.6,��
2018/01/18,13:20,0.863,1.425,-,1.694,1.136,0.482,0.859,0.827,�k�k��,4.0,��
2018/01/18,13:30,0.863,1.424,-,1.692,1.138,0.483,0.860,0.829,�k��,4.9,��
2018/01/18,13:40,0.867,1.426,-,1.694,1.136,0.482,0.860,0.827,�k��,4.9,��
2018/01/18,13:50,0.862,1.429,-,1.693,1.139,0.483,0.861,0.828,�k��,4.6,��
2018/01/18,14:00,0.865,1.428,-,1.694,1.139,0.483,0.862,0.827,�k��,4.3,��
2018/01/18,14:10,0.863,1.425,-,1.693,1.140,0.484,0.859,0.826,�k��,4.0,��
2018/01/18,14:20,0.863,1.426,-,1.692,1.141,0.483,0.860,0.826,�k��,4.3,��
2018/01/18,14:30,0.864,1.428,-,1.692,1.143,0.484,0.860,0.826,�k��,3.5,��
2018/01/18,14:40,0.863,1.425,-,1.696,1.144,0.482,0.858,0.828,�k��,2.9,��
2018/01/18,14:50,0.864,1.427,-,1.695,1.142,0.483,0.862,0.827,���k��,2.6,��
2018/01/18,15:00,0.865,1.428,-,1.692,1.142,0.481,0.861,0.828,���쓌,2.6,��
2018/01/18,15:10,0.863,1.427,-,1.690,1.146,0.482,0.862,0.829,�쓌,2.2,��
2018/01/18,15:20,0.864,1.430,-,1.692,1.143,0.483,0.862,0.829,���쓌,2.0,��
2018/01/18,15:30,0.865,1.429,-,1.695,1.141,0.484,0.860,0.829,���쓌,2.0,��
2018/01/18,15:40,0.862,1.434,0.900,1.694,1.143,0.483,0.863,0.829,�쓌,2.6,��
2018/01/18,15:50,0.863,1.431,0.899,1.693,1.143,0.484,0.862,0.828,�쓌,2.3,��
2018/01/18,16:00,0.862,1.430,0.901,1.693,1.141,0.482,0.861,0.830,��쓌,3.5,��
2018/01/18,16:10,0.861,1.433,0.899,1.692,1.141,0.483,0.862,0.828,��,2.2,��
2018/01/18,16:20,0.863,1.430,0.900,1.693,1.144,0.482,0.861,0.828,��,3.0,��
2018/01/18,16:30,0.862,1.433,0.900,1.693,1.143,0.482,0.862,0.829,�쓌,2.3,��
2018/01/18,16:40,0.861,1.430,0.901,1.695,1.141,0.483,0.860,0.829,��쓌,3.8,��
2018/01/18,16:50,0.865,1.432,0.899,1.692,1.144,0.483,0.861,0.829,��,4.5,��
2018/01/18,17:00,0.864,1.433,0.900,1.693,1.146,0.482,0.861,0.829,��쐼,4.2,��
2018/01/18,17:10,0.863,1.432,0.899,1.693,1.147,0.483,0.862,0.829,�쐼,3.5,��
2018/01/18,17:20,0.865,1.432,0.900,1.694,1.143,0.483,0.862,0.830,�쐼,3.0,��
2018/01/18,17:30,0.863,1.434,0.901,1.693,1.142,0.483,0.862,0.831,��쐼,2.2,��
2018/01/18,17:40,0.864,1.433,0.901,1.692,1.142,0.483,0.861,0.828,��쐼,2.2,��
2018/01/18,17:50,0.863,1.432,0.901,1.693,1.143,0.483,0.861,0.829,���쐼,4.8,��
2018/01/18,18:00,0.863,1.433,0.901,1.693,1.142,0.483,0.861,0.830,���쐼,5.7,��
2018/01/18,18:10,0.864,1.433,0.900,1.693,1.141,0.483,0.861,0.829,���쐼,4.7,��
2018/01/18,18:20,0.863,1.434,0.901,1.695,1.144,0.483,0.860,0.831,���쐼,2.9,��
2018/01/18,18:30,0.865,1.432,0.902,1.695,1.143,0.484,0.862,0.828,���쐼,2.0,��
2018/01/18,18:40,0.865,1.432,0.900,1.693,1.142,0.482,0.861,0.828,��,3.7,��
2018/01/18,18:50,0.864,1.434,0.901,1.695,1.144,0.483,0.862,0.829,��,5.2,��
2018/01/18,19:00,0.866,1.433,0.902,1.696,1.144,0.484,0.863,0.829,���쐼,4.4,��
2018/01/18,19:10,0.865,1.432,0.901,1.692,1.144,0.483,0.860,0.827,�쐼,2.5,��
2018/01/18,19:20,0.864,1.432,0.900,1.696,1.143,0.484,0.862,0.829,��쐼,1.5,��
2018/01/18,19:30,0.864,1.432,0.902,1.694,1.143,0.483,0.861,0.830,��,3.8,��
2018/01/18,19:40,0.863,1.432,0.901,1.699,1.143,0.482,0.861,0.828,���쐼,3.0,��
2018/01/18,19:50,0.862,1.432,0.903,1.693,1.145,0.484,0.862,0.828,���쐼,2.0,��
2018/01/18,20:00,0.865,1.434,0.898,1.694,1.146,0.484,0.861,0.828,��쐼,2.6,��
2018/01/18,20:10,0.865,1.434,0.901,1.693,1.144,0.482,0.862,0.828,�쐼,3.5,��
2018/01/18,20:20,0.866,1.434,0.901,1.691,1.146,0.484,0.860,0.828,�쐼,2.3,��
2018/01/18,20:30,0.866,1.432,0.901,1.692,1.145,0.483,0.860,0.828,��쐼,4.3,��
2018/01/18,20:40,0.868,1.434,0.902,1.693,1.146,0.484,0.861,0.828,�쐼,5.1,��
2018/01/18,20:50,0.865,1.434,0.901,1.695,1.145,0.481,0.861,0.829,��,6.7,��
2018/01/18,21:00,0.867,1.432,0.902,1.695,1.143,0.482,0.864,0.829,��,5.1,��
2018/01/18,21:10,0.865,1.434,0.902,1.693,1.143,0.484,0.864,0.830,��,5.4,��
2018/01/18,21:20,0.866,1.434,0.901,1.691,1.145,0.483,0.863,0.830,��,5.2,��
2018/01/18,21:30,0.867,1.432,0.900,1.694,1.147,0.483,0.861,0.829,��,4.0,��
2018/01/18,21:40,0.866,1.433,0.900,1.699,1.143,0.482,0.862,0.829,��,5.8,��
2018/01/18,21:50,0.865,1.434,0.901,1.698,1.144,0.481,0.861,0.829,��,5.0,��
2018/01/18,22:00,0.865,1.433,0.902,1.695,1.145,0.482,0.861,0.829,���k��,4.7,��
2018/01/18,22:10,0.866,1.433,0.902,1.697,1.144,0.484,0.861,0.830,��,4.7,��
2018/01/18,22:20,0.866,1.436,0.901,1.695,1.144,0.484,0.861,0.830,��,4.3,��
2018/01/18,22:30,0.866,1.433,0.903,1.698,1.144,0.483,0.863,0.829,��,6.2,��
2018/01/18,22:40,0.865,1.433,0.903,1.694,1.144,0.484,0.860,0.830,��,6.6,��
2018/01/18,22:50,0.864,1.434,0.900,1.695,1.145,0.483,0.862,0.829,��,6.6,��
2018/01/18,23:00,0.865,1.434,0.902,1.693,1.145,0.485,0.862,0.829,��,6.9,��
2018/01/18,23:10,0.864,1.434,0.902,1.694,1.146,0.483,0.863,0.829,��,5.1,��
2018/01/18,23:20,0.866,1.432,0.901,1.695,1.146,0.484,0.862,0.828,���k��,3.9,��
2018/01/18,23:30,0.863,1.432,0.902,1.693,1.143,0.483,0.860,0.830,���k��,3.0,��
2018/01/18,23:40,0.865,1.432,0.900,1.692,1.143,0.482,0.860,0.830,�k��,2.0,��
2018/01/18,23:50,0.865,1.434,0.898,1.699,1.145,0.484,0.860,0.830,���k��,1.4,��
